Total_Precipitation_Accumulation
0.24 0.26 0.35 0.54 0.64 0.57 0.51 0.51 0.61 0.55 0.55 0.59 0.65 0.72 0.69 0.66 0.66 0.67 0.70 0.74 0.79 0.84 0.80 0.71 0.68 0.66 0.76 0.92 1.09 1.31 1.58 1.59 1.44 1.38 1.35 1.23 1.15 1.15 1.10 1.09 1.02 1.01 1.08 1.18
0.17 0.17 0.23 0.34 0.38 0.33 0.28 0.35 0.47 0.51 0.57 0.60 0.66 0.72 0.66 0.58 0.53 0.48 0.49 0.53 0.61 0.66 0.73 0.63 0.54 0.53 0.54 0.65 0.87 1.05 1.26 1.37 1.38 1.31 1.21 1.17 1.17 1.13 1.06 1.03 0.98 0.93 0.92 0.96
0.19 0.17 0.23 0.32 0.28 0.29 0.34 0.38 0.44 0.57 0.66 0.65 0.75 0.93 0.84 0.67 0.59 0.49 0.42 0.40 0.44 0.48 0.55 0.58 0.53 0.50 0.53 0.59 0.69 0.84 1.01 1.13 1.15 1.12 1.04 1.06 1.12 1.08 0.99 0.92 0.91 0.85 0.84 0.80
0.32 0.34 0.49 0.42 0.29 0.36 0.48 0.44 0.47 0.58 0.64 0.70 1.00 1.19 0.81 0.58 0.54 0.48 0.41 0.38 0.39 0.44 0.46 0.47 0.49 0.51 0.52 0.54 0.57 0.64 0.73 0.82 0.87 0.94 0.95 0.96 1.01 1.05 1.06 0.97 0.88 0.81 0.83 0.87
0.46 0.50 0.68 0.54 0.32 0.43 0.51 0.48 0.41 0.52 0.58 0.58 0.62 0.56 0.38 0.27 0.28 0.32 0.28 0.27 0.27 0.28 0.31 0.35 0.37 0.41 0.43 0.48 0.53 0.53 0.54 0.58 0.63 0.70 0.81 0.91 0.90 0.92 1.08 1.10 1.00 0.91 0.97 1.00
0.45 0.50 0.58 0.53 0.28 0.31 0.44 0.56 0.30 0.31 0.34 0.29 0.26 0.28 0.28 0.23 0.18 0.18 0.17 0.17 0.18 0.17 0.18 0.24 0.28 0.31 0.36 0.41 0.47 0.48 0.48 0.50 0.57 0.58 0.64 0.78 0.90 0.94 0.92 0.89 0.93 0.97 0.96 0.90
0.38 0.41 0.35 0.28 0.24 0.30 0.56 0.60 0.27 0.23 0.23 0.19 0.21 0.22 0.25 0.26 0.20 0.17 0.16 0.15 0.16 0.17 0.19 0.22 0.31 0.36 0.37 0.41 0.44 0.46 0.51 0.51 0.53 0.56 0.58 0.64 0.69 0.71 0.73 0.78 0.78 0.78 0.78 0.81
0.38 0.44 0.40 0.25 0.28 0.41 0.41 0.26 0.23 0.25 0.24 0.21 0.19 0.17 0.18 0.20 0.18 0.16 0.15 0.16 0.17 0.18 0.20 0.20 0.25 0.36 0.41 0.45 0.45 0.46 0.48 0.47 0.45 0.47 0.47 0.49 0.53 0.55 0.57 0.66 0.74 0.78 0.82 0.86
0.45 0.46 0.36 0.28 0.31 0.30 0.27 0.26 0.23 0.27 0.25 0.23 0.21 0.18 0.16 0.15 0.14 0.13 0.15 0.18 0.20 0.21 0.26 0.29 0.28 0.33 0.41 0.47 0.50 0.47 0.45 0.42 0.44 0.45 0.45 0.41 0.44 0.50 0.57 0.60 0.64 0.68 0.75 0.82
0.34 0.32 0.27 0.25 0.25 0.25 0.25 0.25 0.22 0.24 0.23 0.24 0.25 0.22 0.17 0.15 0.14 0.13 0.14 0.17 0.22 0.29 0.32 0.36 0.35 0.37 0.40 0.45 0.47 0.45 0.41 0.38 0.41 0.44 0.43 0.42 0.42 0.45 0.49 0.53 0.54 0.59 0.66 0.72
0.29 0.25 0.23 0.21 0.21 0.19 0.18 0.18 0.19 0.20 0.20 0.21 0.23 0.22 0.18 0.15 0.15 0.14 0.14 0.16 0.22 0.31 0.33 0.35 0.39 0.44 0.45 0.44 0.42 0.43 0.40 0.38 0.37 0.42 0.43 0.42 0.42 0.45 0.48 0.50 0.59 0.66 0.68 0.70
0.34 0.24 0.24 0.21 0.16 0.14 0.15 0.14 0.17 0.19 0.18 0.17 0.17 0.17 0.16 0.16 0.17 0.15 0.15 0.18 0.23 0.28 0.32 0.35 0.39 0.43 0.44 0.41 0.36 0.38 0.40 0.38 0.36 0.35 0.37 0.41 0.43 0.43 0.49 0.52 0.61 0.65 0.68 0.70
0.28 0.25 0.22 0.19 0.16 0.16 0.17 0.14 0.13 0.14 0.15 0.16 0.15 0.15 0.16 0.16 0.18 0.17 0.19 0.19 0.20 0.24 0.26 0.30 0.34 0.36 0.37 0.39 0.34 0.32 0.36 0.37 0.36 0.33 0.34 0.36 0.41 0.46 0.51 0.51 0.50 0.50 0.53 0.60
0.18 0.20 0.20 0.17 0.15 0.16 0.18 0.15 0.13 0.12 0.13 0.15 0.17 0.18 0.19 0.20 0.21 0.19 0.19 0.18 0.20 0.24 0.23 0.25 0.29 0.33 0.34 0.35 0.35 0.37 0.39 0.39 0.39 0.39 0.37 0.40 0.43 0.47 0.60 0.68 0.63 0.51 0.53 0.57
0.14 0.15 0.18 0.17 0.15 0.14 0.14 0.14 0.14 0.14 0.14 0.15 0.16 0.17 0.17 0.19 0.21 0.19 0.18 0.19 0.20 0.20 0.22 0.24 0.29 0.33 0.33 0.33 0.36 0.37 0.40 0.44 0.47 0.49 0.46 0.47 0.51 0.56 0.61 0.56 0.56 0.56 0.53 0.55
0.15 0.15 0.16 0.17 0.17 0.16 0.15 0.15 0.16 0.16 0.16 0.17 0.18 0.17 0.18 0.20 0.23 0.21 0.18 0.20 0.20 0.18 0.20 0.24 0.29 0.34 0.34 0.32 0.36 0.37 0.38 0.48 0.54 0.60 0.55 0.50 0.58 0.61 0.56 0.54 0.57 0.60 0.57 0.55
0.18 0.18 0.19 0.21 0.20 0.18 0.18 0.18 0.18 0.19 0.18 0.20 0.23 0.22 0.20 0.18 0.20 0.18 0.18 0.19 0.17 0.15 0.20 0.26 0.29 0.33 0.37 0.36 0.36 0.39 0.44 0.46 0.50 0.59 0.61 0.58 0.64 0.64 0.61 0.59 0.60 0.61 0.60 0.64
0.21 0.20 0.20 0.21 0.22 0.22 0.22 0.21 0.20 0.19 0.21 0.24 0.27 0.26 0.23 0.22 0.24 0.21 0.22 0.21 0.18 0.19 0.24 0.32 0.34 0.38 0.38 0.37 0.37 0.40 0.46 0.50 0.47 0.53 0.59 0.63 0.66 0.65 0.65 0.63 0.60 0.61 0.61 0.64
0.21 0.22 0.23 0.23 0.25 0.25 0.24 0.24 0.22 0.21 0.23 0.27 0.30 0.28 0.25 0.27 0.29 0.25 0.25 0.26 0.25 0.28 0.32 0.38 0.45 0.45 0.42 0.42 0.45 0.43 0.46 0.55 0.53 0.54 0.56 0.64 0.63 0.61 0.66 0.68 0.66 0.65 0.65 0.62
0.26 0.26 0.28 0.30 0.30 0.28 0.26 0.24 0.23 0.24 0.26 0.29 0.33 0.31 0.27 0.26 0.26 0.27 0.28 0.31 0.32 0.35 0.41 0.46 0.47 0.48 0.48 0.49 0.54 0.50 0.52 0.60 0.64 0.67 0.66 0.68 0.65 0.61 0.62 0.60 0.62 0.66 0.66 0.63
0.29 0.27 0.28 0.30 0.31 0.30 0.31 0.29 0.27 0.26 0.27 0.32 0.36 0.38 0.37 0.34 0.33 0.33 0.32 0.35 0.35 0.36 0.40 0.48 0.48 0.53 0.57 0.59 0.60 0.56 0.56 0.61 0.67 0.73 0.77 0.76 0.72 0.67 0.64 0.61 0.61 0.64 0.62 0.62
0.31 0.29 0.30 0.30 0.31 0.31 0.32 0.33 0.30 0.30 0.32 0.34 0.38 0.40 0.41 0.40 0.39 0.38 0.35 0.37 0.40 0.47 0.45 0.45 0.49 0.63 0.71 0.69 0.59 0.56 0.57 0.59 0.65 0.72 0.80 0.83 0.81 0.77 0.73 0.68 0.65 0.63 0.61 0.63
0.30 0.30 0.31 0.32 0.32 0.30 0.31 0.33 0.32 0.31 0.33 0.36 0.38 0.40 0.40 0.38 0.36 0.38 0.40 0.40 0.42 0.51 0.48 0.49 0.57 0.68 0.75 0.67 0.62 0.59 0.59 0.63 0.65 0.68 0.78 0.86 0.86 0.84 0.80 0.79 0.75 0.71 0.68 0.68
0.26 0.28 0.30 0.30 0.29 0.30 0.32 0.32 0.31 0.32 0.32 0.32 0.33 0.36 0.39 0.40 0.38 0.36 0.41 0.48 0.53 0.55 0.49 0.55 0.60 0.65 0.70 0.65 0.65 0.61 0.61 0.65 0.67 0.68 0.76 0.82 0.83 0.83 0.83 0.82 0.81 0.80 0.77 0.74
0.24 0.25 0.27 0.28 0.29 0.30 0.30 0.29 0.30 0.31 0.32 0.32 0.30 0.32 0.37 0.41 0.45 0.44 0.45 0.50 0.58 0.59 0.54 0.58 0.60 0.59 0.55 0.59 0.67 0.67 0.66 0.70 0.75 0.78 0.80 0.83 0.80 0.80 0.79 0.78 0.80 0.83 0.82 0.81
0.24 0.25 0.25 0.25 0.28 0.31 0.30 0.31 0.34 0.34 0.36 0.36 0.34 0.34 0.40 0.44 0.46 0.48 0.49 0.54 0.59 0.64 0.59 0.55 0.55 0.56 0.55 0.61 0.66 0.69 0.71 0.74 0.77 0.78 0.79 0.79 0.76 0.74 0.74 0.76 0.78 0.80 0.82 0.84
0.26 0.26 0.25 0.27 0.29 0.32 0.34 0.36 0.39 0.40 0.40 0.39 0.37 0.37 0.42 0.49 0.48 0.49 0.50 0.54 0.58 0.61 0.61 0.61 0.61 0.64 0.68 0.71 0.75 0.77 0.77 0.76 0.74 0.74 0.78 0.80 0.79 0.78 0.77 0.77 0.78 0.79 0.81 0.81